Miscellaneous Local Product
Issued by NWS Hastings, NE

Home | Current Version | Previous Version | Graphics & Text | Print | Product List | Glossary On
Versions: 1 2 3 4 5 6 7 8 9 10 11 12 13 14 15 16 17 18 19 20 21 22 23 24 25 26 27 28 29 30 31 32 33 34 35 36 37 38 39 40 41 42 43 44 45 46 47 48 49 50
000
AXUS43 KGID 051602
MISGRI

GID CWA HOURLY WEATHER ROUNDUP
NATIONAL WEATHER SERVICE HASTINGS NE
1100 AM CDT SUN JUL 05 2015

NOTE: "FAIR" INDICATES FEW OR NO CLOUDS BELOW 12,000 FEET WITH NO
SIGNIFICANT WEATHER AND/OR OBSTRUCTIONS TO VISIBILITY.

...SOUTH CENTRAL NEBRASKA...

CITY           SKY/WX    TMP DP  RH WIND       PRES   REMARKS
GRAND ISLAND   MOSUNNY   79  69  71 SE14      29.90F
HASTINGS       SUNNY     83  70  64 S10       29.89R
KEARNEY        SUNNY     81  70  69 SE13      29.87S
ORD            MOSUNNY   78  67  68 SE16      29.85F
YORK           MOSUNNY   75  70  83 E12       29.91F
AURORA         PTSUNNY   78  72  81 SE12      29.90S
LEXINGTON      SUNNY     83  69  62 SE10G16   29.85F
HOLDREGE       SUNNY     81  67  62 SE14      29.86F
HEBRON         MOSUNNY   81  69  66 S15       29.88F

...NEBRASKA PANHANDLE...

CITY           SKY/WX    TMP DP  RH WIND       PRES   REMARKS
CHADRON        PTSUNNY   82  66  58 CALM      29.79S
ALLIANCE       SUNNY     81  66  60 SW8       29.85F
SCOTTSBLUFF    SUNNY     83  64  52 CALM      29.87S
SIDNEY         SUNNY     87  54  32 SW5       29.91S

...WESTERN AND NORTH CENTRAL NEBRASKA...

CITY           SKY/WX    TMP DP  RH WIND       PRES   REMARKS
VALENTINE      SUNNY     85  67  54 S14       29.80S
AINSWORTH      SUNNY     83  68  59 S14       29.83R
ONEILL         MOSUNNY   80  69  71 SE13G22   29.85F
BROKEN BOW     SUNNY     81  69  67 SE14G25   29.86S
IMPERIAL       SUNNY     84  62  47 S7        29.84F
NORTH PLATTE   SUNNY     85  65  51 S10       29.83F
MCCOOK         SUNNY     89  62  40 S12       29.83F

...EASTERN NEBRASKA...

CITY           SKY/WX    TMP DP  RH WIND       PRES   REMARKS
NORFOLK        PTSUNNY   78  65  63 SE14      29.86F
SO SIOUX CITY  CLOUDY    73  66  78 E6        29.85F
TEKAMAH        LGT RAIN  71  68  90 SE9       29.92F FOG
COLUMBUS       PTSUNNY   72  64  78 SE9G16    29.88F
ALBION         PTSUNNY   76  68  74 SE15      29.89S
OMAHA EPPLEY   CLOUDY    72  66  81 N7        29.97R
OFFUTT AFB     CLOUDY    72  67  83 N6        29.95R
MILLARD        CLOUDY    72  67  82 N7        29.98R
LINCOLN        CLOUDY    73  68  84 NE17      29.94R HAZE
NEBRASKA CITY  CLOUDY    75  66  73 SE8       29.95R
BEATRICE       CLOUDY    80  70  73 SE13G18   29.90F
FALLS CITY     CLOUDY    79  70  74 S14       29.94S

...NORTHERN KANSAS...

CITY           SKY/WX    TMP DP  RH WIND       PRES   REMARKS
GOODLAND       SUNNY     87  59  38 S9        29.88S
HILL CITY      SUNNY     92  64  39 SW13G22   29.84F HX  93
NORTON         SUNNY     88  57  35 S12       29.83F
PHILLIPSBURG   SUNNY     91  64  40 S14G22    29.84F HX  93
SMITH CENTER   SUNNY     88  64  45 S15       29.86F
HAYS           SUNNY     90  64  43 S18G24    29.86S HX  91
RUSSELL        LGT RAIN  88  67  49 S25       29.85F HX  91
CONCORDIA      SUNNY     86  70  58 S21       29.88F HX  90
SALINA         SUNNY     90  69  50 S16G23    29.89F HX  94
TOPEKA         CLOUDY    83  73  72 SE17      29.95F



USA.gov is the U.S. government's official web portal to all federal, state and local government web resources and services.